Retour au catalogue

STARLINK-32912

ActifCommunicationsVLEO
NORAD 63088·PAYLOAD·🇺🇸 United States

Lancé Feb 23, 2025 depuis Vandenberg Space Force Base

Loading…

Prochains Passages (prochaines 24 heures)

TLE

FraisSource: CelesTrak SupGP

Époque: Sep 14, 2026, 21:04 UTC

1 63088C 25037M   26257.87826389  .00052623  00000+0  18306-2 0  2579
2 63088  69.9999 235.8547 0003002 266.8283 341.8668 15.29553758    19

Suivez STARLINK-32912 en temps réel avec AllMySat

Download on the App Store